Location: Stoke Bliss
(52.2667°N, 2.5167°W)
Time: 13:26:47
(UTC+00:00)

Cosmos 2278 Rocket - Pass Details

Date: 03 March 2021
Orbit: 841 x 845 km, 71.0° (Epoch: 13 April)

Event Time Altitude Azimuth Distance (km) Brightness Sun altitude
Rises 18:37:26 0° 328° (NNW) 3,417 5.8 -7.5°
Reaches altitude 10° 18:40:28 10° 343° (NNW) 2,479 4.9 -8.0°
Maximum altitude 18:44:51 22° 34° (NE) 1,764 3.6 -8.7°
Enters shadow 18:48:53 11° 82° (E) 2,382 3.9 -9.3°
